TimeEST,TemperatureF,Dew PointF,Humidity,Sea Level PressureIn,VisibilityMPH,Wind Direction,Wind SpeedMPH,Gust SpeedMPH,PrecipitationIn,Events,Conditions,WindDirDegrees,DateUTC
12:13 AM,29.8,29.8,100,30.55,2.5,Calm,Calm,-,N/A,,Clear,0,2012-11-18 05:13:00
12:33 AM,34.5,34.5,100,30.55,1.5,Calm,Calm,-,N/A,,Mist,0,2012-11-18 05:33:00
12:53 AM,33.4,33.4,100,30.55,0.8,Calm,Calm,-,N/A,,Mist,0,2012-11-18 05:53:00
1:13 AM,30.9,30.9,100,30.54,0.2,Calm,Calm,-,N/A,Fog,Light Freezing Fog,0,2012-11-18 06:13:00
1:33 AM,31.3,31.3,100,30.54,0.2,Calm,Calm,-,N/A,Fog,Light Freezing Fog,0,2012-11-18 06:33:00
1:53 AM,28.8,28.8,100,30.54,0.2,Calm,Calm,-,N/A,Fog,Light Freezing Fog,0,2012-11-18 06:53:00
2:13 AM,27.3,27.3,100,30.54,0.2,Calm,Calm,-,N/A,Fog,Light Freezing Fog,0,2012-11-18 07:13:00
2:33 AM,28.6,28.6,100,30.54,0.2,Calm,Calm,-,N/A,Fog,Light Freezing Fog,0,2012-11-18 07:33:00
2:53 AM,28.8,28.8,100,30.54,0.2,East,3.5,-,N/A,Fog,Light Freezing Fog,90,2012-11-18 07:53:00
3:13 AM,32.2,32.2,100,30.54,0.2,Calm,Calm,-,N/A,Fog,Fog,0,2012-11-18 08:13:00
3:33 AM,33.6,33.6,100,30.53,0.2,Calm,Calm,-,N/A,Fog,Fog,0,2012-11-18 08:33:00
3:53 AM,34.9,34.9,100,30.52,0.2,Calm,Calm,-,N/A,Fog,Fog,0,2012-11-18 08:53:00
4:13 AM,35.6,35.6,100,30.52,0.2,ESE,3.5,-,N/A,Fog,Fog,110,2012-11-18 09:13:00
4:33 AM,36.0,36.0,100,30.52,0.2,Calm,Calm,-,N/A,Fog,Fog,0,2012-11-18 09:33:00
4:53 AM,36.5,36.5,100,30.52,0.2,Calm,Calm,-,N/A,Fog,Fog,0,2012-11-18 09:53:00
5:13 AM,36.7,36.7,100,30.53,0.2,ESE,4.6,-,N/A,Fog,Fog,120,2012-11-18 10:13:00
5:33 AM,36.9,36.9,100,30.54,0.2,ESE,3.5,-,N/A,Fog,Fog,110,2012-11-18 10:33:00
5:53 AM,37.0,37.0,100,30.54,0.2,Calm,Calm,-,N/A,Fog,Fog,0,2012-11-18 10:53:00
6:13 AM,37.4,37.4,100,30.54,0.2,Calm,Calm,-,N/A,Fog,Fog,0,2012-11-18 11:13:00
6:33 AM,37.4,37.4,100,30.54,0.2,Calm,Calm,-,N/A,Fog,Fog,0,2012-11-18 11:33:00
6:53 AM,37.6,37.6,100,30.53,0.2,ESE,3.5,-,N/A,Fog,Fog,120,2012-11-18 11:53:00
7:13 AM,38.3,38.3,100,30.53,0.2,SE,3.5,-,N/A,Fog,Fog,130,2012-11-18 12:13:00
7:33 AM,38.5,38.5,100,30.53,0.8,SE,3.5,-,N/A,,Overcast,140,2012-11-18 12:33:00
7:53 AM,38.7,38.7,100,30.53,0.2,Calm,Calm,-,N/A,Fog,Fog,0,2012-11-18 12:53:00
8:13 AM,39.0,39.0,100,30.54,0.2,SE,3.5,-,N/A,Fog,Fog,140,2012-11-18 13:13:00
8:33 AM,39.2,39.2,100,30.53,0.5,SE,4.6,-,N/A,Fog,Fog,140,2012-11-18 13:33:00
8:53 AM,39.2,39.2,100,30.53,0.5,ESE,4.6,-,N/A,Fog,Fog,120,2012-11-18 13:53:00
9:13 AM,39.4,39.4,100,30.53,0.5,SE,6.9,-,N/A,Fog,Fog,140,2012-11-18 14:13:00
9:33 AM,39.6,39.6,100,30.53,1.0,ESE,5.8,-,N/A,,Overcast,110,2012-11-18 14:33:00
9:53 AM,39.7,39.7,100,30.54,0.5,SE,4.6,-,N/A,Fog,Fog,140,2012-11-18 14:53:00
10:13 AM,40.1,40.1,100,30.53,1.0,SE,4.6,-,N/A,,Overcast,140,2012-11-18 15:13:00
10:33 AM,40.3,40.3,100,30.53,2.0,SE,4.6,-,N/A,,Overcast,130,2012-11-18 15:33:00
10:53 AM,41.0,41.0,100,30.53,2.5,SE,5.8,-,N/A,,Overcast,140,2012-11-18 15:53:00
11:13 AM,41.0,41.0,100,30.52,3.0,ESE,4.6,-,N/A,,Overcast,110,2012-11-18 16:13:00
11:33 AM,41.9,41.9,100,30.52,4.0,East,3.5,-,N/A,,Overcast,100,2012-11-18 16:33:00
11:53 AM,42.3,42.3,100,30.50,5.0,East,4.6,-,N/A,,Overcast,80,2012-11-18 16:53:00
12:13 PM,43.9,43.9,100,30.49,5.0,East,4.6,-,N/A,,Scattered Clouds,100,2012-11-18 17:13:00
12:33 PM,44.8,44.8,100,30.48,7.0,SSE,3.5,-,N/A,,Clear,150,2012-11-18 17:33:00
12:53 PM,44.6,44.6,100,30.48,7.0,SE,3.5,-,N/A,,Clear,130,2012-11-18 17:53:00
1:13 PM,45.3,45.3,100,30.48,7.0,Calm,Calm,-,N/A,,Clear,0,2012-11-18 18:13:00
1:33 PM,47.5,43.9,87,30.47,7.0,Calm,Calm,-,N/A,,Clear,0,2012-11-18 18:33:00
1:53 PM,49.8,44.8,83,30.46,10.0,ESE,4.6,-,N/A,,Clear,120,2012-11-18 18:53:00
2:13 PM,51.1,44.1,77,30.45,10.0,East,3.5,-,N/A,,Clear,80,2012-11-18 19:13:00
2:33 PM,51.8,42.8,71,30.44,10.0,ESE,8.1,-,N/A,,Clear,110,2012-11-18 19:33:00
2:53 PM,51.8,43.5,73,30.44,10.0,SE,4.6,-,N/A,,Clear,130,2012-11-18 19:53:00
3:13 PM,51.6,40.5,66,30.44,10.0,SE,6.9,-,N/A,,Clear,130,2012-11-18 20:13:00
3:33 PM,51.8,39.6,63,30.44,10.0,SSE,5.8,-,N/A,,Clear,150,2012-11-18 20:33:00
3:53 PM,51.8,40.1,64,30.44,10.0,East,5.8,-,N/A,,Clear,100,2012-11-18 20:53:00
4:13 PM,51.3,39.7,65,30.44,10.0,East,3.5,-,N/A,,Clear,90,2012-11-18 21:13:00
4:33 PM,50.5,39.2,65,30.44,10.0,Calm,Calm,-,N/A,,Clear,0,2012-11-18 21:33:00
4:53 PM,49.8,38.3,65,30.44,10.0,Calm,Calm,-,N/A,,Clear,0,2012-11-18 21:53:00
5:13 PM,47.3,37.2,68,30.44,10.0,Calm,Calm,-,N/A,,Clear,0,2012-11-18 22:13:00
5:34 PM,46.6,36.5,68,30.44,10.0,Calm,Calm,-,N/A,,Clear,0,2012-11-18 22:34:00
5:53 PM,42.4,35.2,76,30.44,10.0,Calm,Calm,-,N/A,,Clear,0,2012-11-18 22:53:00
6:13 PM,43.5,35.2,73,30.44,10.0,Calm,Calm,-,N/A,,Clear,0,2012-11-18 23:13:00
6:33 PM,40.5,34.0,78,30.45,10.0,Calm,Calm,-,N/A,,Clear,0,2012-11-18 23:33:00
6:53 PM,36.3,34.7,94,30.45,10.0,Calm,Calm,-,N/A,,Clear,0,2012-11-18 23:53:00
7:13 PM,33.1,33.1,100,30.45,10.0,Calm,Calm,-,N/A,,Clear,0,2012-11-19 00:13:00
7:33 PM,33.3,33.3,100,30.45,7.0,Calm,Calm,-,N/A,,Clear,0,2012-11-19 00:33:00
7:53 PM,33.1,33.1,100,30.45,10.0,Calm,Calm,-,N/A,,Clear,0,2012-11-19 00:53:00
8:13 PM,32.5,32.5,100,30.44,10.0,Calm,Calm,-,N/A,,Clear,0,2012-11-19 01:13:00
8:33 PM,32.9,32.9,100,30.44,10.0,Calm,Calm,-,N/A,,Clear,0,2012-11-19 01:33:00
8:53 PM,31.3,31.3,100,30.44,10.0,Calm,Calm,-,N/A,,Clear,0,2012-11-19 01:53:00
9:13 PM,31.5,31.5,100,30.44,10.0,Calm,Calm,-,N/A,,Clear,0,2012-11-19 02:13:00
9:33 PM,31.6,31.6,100,30.44,7.0,Calm,Calm,-,N/A,,Clear,0,2012-11-19 02:33:00
9:53 PM,30.7,30.7,100,30.44,10.0,Calm,Calm,-,N/A,,Clear,0,2012-11-19 02:53:00
10:13 PM,30.0,30.0,100,30.43,5.0,Calm,Calm,-,N/A,,Clear,0,2012-11-19 03:13:00
10:33 PM,29.7,29.7,100,30.43,5.0,Calm,Calm,-,N/A,,Clear,0,2012-11-19 03:33:00
10:53 PM,29.3,29.3,100,30.43,5.0,SE,3.5,-,N/A,,Clear,130,2012-11-19 03:53:00
11:33 PM,28.8,28.8,100,30.43,7.0,Calm,Calm,-,N/A,,Clear,0,2012-11-19 04:33:00